TimeEDT,TemperatureF,Dew PointF,Humidity,Sea Level PressureIn,VisibilityMPH,Wind Direction,Wind SpeedMPH,Gust SpeedMPH,PrecipitationIn,Events,Conditions,WindDirDegrees,DateUTC
12:09 AM,24.8,15.8,69,30.01,10.0,West,11.5,-,N/A,,Mostly Cloudy,280,2013-04-03 04:09:00
12:21 AM,24.8,15.8,69,30.01,10.0,West,12.7,-,N/A,,Scattered Clouds,280,2013-04-03 04:21:00
4:53 AM,24.1,12.0,60,30.07,10.0,WNW,13.8,23.0,N/A,,Overcast,300,2013-04-03 08:53:00
5:53 AM,24.1,12.0,60,30.09,10.0,WNW,10.4,24.2,0.00,Snow,Light Snow,300,2013-04-03 09:53:00
6:53 AM,23.0,15.1,72,30.12,3.0,WNW,8.1,-,0.00,Snow,Light Snow,300,2013-04-03 10:53:00
7:00 AM,21.2,15.8,80,30.06,2.0,WNW,9.2,-,0.00,Snow,Light Snow,300,2013-04-03 11:00:00
7:44 AM,23.0,15.8,74,30.08,9.0,WNW,9.2,-,0.00,Snow,Light Snow,300,2013-04-03 11:44:00
7:53 AM,23.0,16.0,74,30.14,3.0,WNW,13.8,19.6,0.00,Snow,Light Snow,290,2013-04-03 11:53:00
8:53 AM,25.0,14.0,63,30.14,10.0,WNW,16.1,24.2,0.00,,Mostly Cloudy,300,2013-04-03 12:53:00
9:53 AM,27.0,12.9,56,30.15,10.0,NW,15.0,21.9,0.00,,Mostly Cloudy,320,2013-04-03 13:53:00
10:06 AM,26.6,12.2,55,30.09,10.0,WNW,11.5,25.3,N/A,,Mostly Cloudy,300,2013-04-03 14:06:00
10:15 AM,26.6,12.2,55,30.09,10.0,NW,16.1,21.9,N/A,,Mostly Cloudy,310,2013-04-03 14:15:00
10:53 AM,28.0,12.0,51,30.15,9.0,WNW,15.0,-,0.00,Snow,Light Snow,290,2013-04-03 14:53:00
11:29 AM,26.6,17.6,69,30.11,1.5,WNW,15.0,23.0,0.00,Snow,Light Snow,300,2013-04-03 15:29:00
11:33 AM,26.6,17.6,69,30.11,4.0,NW,16.1,24.2,0.00,Snow,Light Snow,310,2013-04-03 15:33:00
11:43 AM,28.4,15.8,59,30.11,10.0,WNW,13.8,21.9,0.00,Snow,Light Snow,300,2013-04-03 15:43:00
11:53 AM,30.0,15.1,54,30.17,10.0,West,17.3,23.0,0.00,,Overcast,280,2013-04-03 15:53:00
12:53 PM,28.9,10.9,47,30.18,10.0,NW,13.8,21.9,0.00,,Overcast,310,2013-04-03 16:53:00
1:53 PM,30.0,10.9,45,30.19,10.0,WNW,11.5,23.0,N/A,,Overcast,300,2013-04-03 17:53:00
2:53 PM,33.1,12.0,42,30.19,10.0,NW,11.5,19.6,N/A,,Overcast,310,2013-04-03 18:53:00
3:53 PM,30.0,15.1,54,30.21,10.0,NW,11.5,28.8,N/A,,Mostly Cloudy,310,2013-04-03 19:53:00
4:53 PM,30.0,12.9,49,30.22,10.0,NW,16.1,23.0,0.00,,Overcast,310,2013-04-03 20:53:00
5:53 PM,30.9,12.0,46,30.24,10.0,NW,11.5,21.9,N/A,,Mostly Cloudy,310,2013-04-03 21:53:00
6:53 PM,28.9,12.0,49,30.26,10.0,NW,10.4,17.3,N/A,,Mostly Cloudy,310,2013-04-03 22:53:00
7:53 PM,28.0,10.9,49,30.29,10.0,WNW,10.4,18.4,N/A,,Partly Cloudy,300,2013-04-03 23:53:00
8:53 PM,27.0,12.0,53,30.31,10.0,West,8.1,-,N/A,,Mostly Cloudy,280,2013-04-04 00:53:00
9:53 PM,27.0,12.0,53,30.33,10.0,West,9.2,-,N/A,,Scattered Clouds,280,2013-04-04 01:53:00
10:53 PM,27.0,12.0,53,30.34,10.0,WNW,10.4,-,N/A,,Mostly Cloudy,300,2013-04-04 02:53:00
11:53 PM,26.1,12.9,58,30.35,10.0,West,8.1,-,N/A,,Clear,280,2013-04-04 03:53:00